Weather History for Branson, MO

Change the Weather History Date:

Monday, March 11, 2013

  Actual Average (KHRO) Record (KHRO)
Temperature  
Mean Temperature 35 °F 47 °F  
Max Temperature 42 °F 58 °F 89 °F (1967)
Min Temperature 28 °F 36 °F 0 °F (1948)
Degree Days  
Heating Degree Days 30 18  
Month to date heating degree days 213  
Since 1 July heating degree days 3385  
Cooling Degree Days 0 0  
Month to date cooling degree days 0  
Year to date cooling degree days 0  
Moisture  
Dew Point 23 °F    
Average Humidity 70    
Maximum Humidity 93    
Minimum Humidity 39    
Precipitation  
Precipitation 0.00 in 0.12 in 1.76 in (1977)
Month to date precipitation 1.23  
Year to date precipitation 6.43  
Snow  
Snow 0.00 in 0.10 in 3.20 in (1948)
Month to date snowfall 1.1  
Since 1 July snowfall 10.3  
Snow Depth -    
Sea Level Pressure  
Sea Level Pressure 29.93 in    
Wind  
Wind Speed 8 mph (WNW)    
Max Wind Speed 17 mph    
Max Gust Speed 23 mph    
Visibility 8 miles    
Events Rain    
T = Trace of Precipitation, MM = Missing Value Source: NWS Daily Summary

Daily Weather History Graph

Daily Weather History Graph

Search for Another Location

Airport:

Trip Planner

Search our weather history database for the weather conditions in past years. The results will help you decide how hot, cold, wet, or windy it might be!

Date:

Astronomy

Mar. 11, 2013 Rise Set
Actual Time 7:29 AM CDT 7:16 PM CDT
Civil Twilight 7:03 AM CDT 7:42 PM CDT
Nautical Twilight 6:33 AM CDT 8:12 PM CDT
Astronomical Twilight 6:03 AM CDT 8:42 PM CDT
Moon 7:03 AM CDT (3/11) 7:28 PM CDT (3/11)
Length of Visible Light 12h 39m
Length of Day
11h 47m
Waning Crescent, 0% of the Moon is Illuminated
Mar 11
Waning Crescent
Mar 11
New
Mar 19
First Quarter
Mar 27
Full
Apr 2
Last Quarter

Hourly Weather History & Observations

Time (CDT) Temp. Windchill Dew Point Humidity Pressure Visibility Wind Dir Wind Speed Gust Speed Precip Events Conditions
12:15 AM 32.0 °F 23.0 °F 28.4 °F 87% 29.89 in 10.0 mi West 11.5 mph 18.4 mph N/A   Overcast
12:35 AM 30.2 °F 25.4 °F 26.6 °F 86% 29.89 in 7.0 mi West 4.6 mph 17.3 mph N/A   Overcast
12:55 AM 30.2 °F 23.4 °F 26.6 °F 86% 29.88 in 7.0 mi West 6.9 mph 18.4 mph N/A   Overcast
1:15 AM 30.2 °F 20.8 °F 26.6 °F 86% 29.88 in 7.0 mi West 11.5 mph 19.6 mph N/A   Overcast
1:55 AM 30.2 °F 24.3 °F 26.6 °F 86% 29.87 in 7.0 mi West 5.8 mph - N/A   Overcast
2:15 AM 30.2 °F 24.3 °F 26.6 °F 86% 29.87 in 5.0 mi West 5.8 mph - N/A   Overcast
2:35 AM 30.2 °F 23.4 °F 26.6 °F 86% 29.87 in 5.0 mi WNW 6.9 mph - N/A Rain Light Freezing Rain
2:55 AM 28.4 °F 19.7 °F 24.8 °F 86% 29.87 in 10.0 mi WNW 9.2 mph 21.9 mph N/A   Overcast
3:15 AM 28.4 °F 22.2 °F 24.8 °F 86% 29.88 in 10.0 mi West 5.8 mph - N/A   Overcast
3:55 AM 28.4 °F 18.5 °F 26.6 °F 93% 29.91 in 3.0 mi West 11.5 mph 17.3 mph N/A Rain Light Freezing Rain
4:15 AM 28.4 °F 19.7 °F 26.6 °F 93% 29.90 in 3.0 mi West 9.2 mph 18.4 mph N/A Rain Light Freezing Rain
4:35 AM 28.4 °F 19.7 °F 24.8 °F 86% 29.89 in 4.0 mi West 9.2 mph 18.4 mph N/A   Scattered Clouds
4:55 AM 28.4 °F 19.7 °F 24.8 °F 86% 29.88 in 3.0 mi WNW 9.2 mph 16.1 mph N/A   Mostly Cloudy
5:15 AM 28.4 °F 19.7 °F 26.6 °F 93% 29.89 in 3.0 mi West 9.2 mph - N/A   Mostly Cloudy
5:35 AM 28.4 °F 19.7 °F 24.8 °F 86% 29.89 in 6.0 mi West 9.2 mph 17.3 mph N/A   Overcast
5:55 AM 28.4 °F 19.7 °F 24.8 °F 86% 29.89 in 9.0 mi WNW 9.2 mph - N/A   Overcast
6:15 AM 28.4 °F 20.4 °F 24.8 °F 86% 29.89 in 10.0 mi West 8.1 mph 19.6 mph N/A   Overcast
6:50 AM 28.4 °F 17.5 °F 23.0 °F 80% 29.89 in 10.0 mi West 13.8 mph 20.7 mph N/A   Overcast
7:51 AM 28.4 °F 18.0 °F 23.0 °F 80% 29.89 in 10.0 mi WNW 12.7 mph 20.7 mph N/A   Overcast
8:50 AM 28.4 °F 18.5 °F 23.0 °F 80% 29.91 in 10.0 mi WNW 11.5 mph 18.4 mph N/A   Overcast
9:48 AM 28.4 °F 18.0 °F 23.0 °F 80% 29.93 in 10.0 mi West 12.7 mph 17.3 mph N/A   Overcast
10:50 AM 30.2 °F 19.8 °F 23.0 °F 75% 29.94 in 10.0 mi WNW 13.8 mph 18.4 mph N/A   Mostly Cloudy
11:50 AM 32.0 °F 20.8 °F 23.0 °F 69% 29.95 in 10.0 mi WNW 17.3 mph 23.0 mph N/A   Mostly Cloudy
12:46 PM 32.0 °F 23.6 °F 24.8 °F 75% 29.94 in 10.0 mi WNW 10.4 mph 18.4 mph N/A   Mostly Cloudy
1:48 PM 35.6 °F 26.6 °F 24.8 °F 65% 29.94 in 10.0 mi WNW 13.8 mph 19.6 mph N/A   Mostly Cloudy
2:45 PM 37.4 °F 29.8 °F 24.8 °F 60% 29.92 in 10.0 mi WNW 11.5 mph 17.3 mph N/A   Scattered Clouds
3:45 PM 39.2 °F 33.0 °F 23.0 °F 52% 29.92 in 10.0 mi WNW 9.2 mph 20.7 mph N/A   Scattered Clouds
4:45 PM 41.0 °F 34.7 °F 23.0 °F 49% 29.92 in 10.0 mi WNW 10.4 mph 18.4 mph N/A   Partly Cloudy
5:45 PM 42.8 °F 37.5 °F 19.4 °F 39% 29.93 in 10.0 mi WNW 9.2 mph 16.1 mph N/A   Clear
6:45 PM 41.0 °F 35.8 °F 17.6 °F 39% 29.94 in 10.0 mi West 8.1 mph - N/A   Clear
7:45 PM 39.2 °F 35.9 °F 19.4 °F 45% 29.95 in 10.0 mi WNW 4.6 mph - N/A   Partly Cloudy
8:45 PM 37.4 °F 32.8 °F 19.4 °F 48% 29.98 in 10.0 mi WNW 5.8 mph - N/A   Partly Cloudy
8:55 PM 37.4 °F 34.9 °F 21.2 °F 52% 29.98 in 10.0 mi West 3.5 mph - N/A   Clear
9:15 PM 37.4 °F 34.9 °F 19.4 °F 48% 29.98 in 10.0 mi West 3.5 mph - N/A   Clear
9:55 PM 35.6 °F 32.8 °F 19.4 °F 52% 30.00 in 10.0 mi West 3.5 mph - N/A   Clear
10:15 PM 37.4 °F 34.9 °F 19.4 °F 48% 30.02 in 10.0 mi West 3.5 mph - N/A   Clear
10:35 PM 35.6 °F 32.8 °F 19.4 °F 52% 30.02 in 10.0 mi West 3.5 mph - N/A   Clear
10:55 PM 35.6 °F - 19.4 °F 52% 30.03 in 10.0 mi Calm Calm - N/A   Clear
11:15 PM 35.6 °F - 19.4 °F 52% 30.03 in 10.0 mi Calm Calm - N/A   Clear
11:35 PM 35.6 °F - 19.4 °F 52% 30.03 in 10.0 mi Calm Calm - N/A   Clear
11:55 PM 35.6 °F - 19.4 °F 52% 30.02 in 10.0 mi Calm Calm - N/A   Clear